Terminal Aerodrome Forecast
Issued by NWS

Home | Current Version | Previous Version | Text Only | Print | Product List | Glossary On
Versions: 1 2 3 4 5 6 7 8 9 10 11 12 13 14 15 16 17 18 19 20 21 22 23 24 25 26 27 28 29 30 31 32 33 34
000
FTUS43 KDMX 281736
TAFOTM
TAF
KOTM 281736Z 2818/2918 19012KT P6SM BKN250
     FM282300 17006KT P6SM SCT035 BKN080
     FM290800 18009KT 6SM BR SCT030 BKN080
     FM291600 21013KT P6SM SCT080=

USA.gov is the U.S. government's official web portal to all federal, state and local government web resources and services.